Location: Newark
(49.3667°N, 21.6167°E)
Time: 02:19:59
(UTC+00:00)

Envisat - Pass Details

Date: 11 December 2019
Orbit: 764 x 766 km, 98.1° (Epoch: 23 January)

Event Time Altitude Azimuth Distance (km) Brightness Sun altitude
Rises 15:20:37 0° 134° (SE) 3,225 6.0 -7.2°
Reaches altitude 10° 15:23:07 10° 125° (SE) 2,303 5.2 -7.6°
Maximum altitude 15:27:33 32° 64° (ENE) 1,311 3.7 -8.3°
Drops below altitude 10° 15:32:01 10° 3° (N) 2,317 5.2 -8.9°
Sets 15:34:32 0° 353° (N) 3,247 6.1 -9.3°
